Terug naar catalogus

FENGYUN 1C DEB

LostSSO
NORAD 36670·DEBRIS·🇨🇳 China

Gelanceerd May 10, 1999 vanaf Taiyuan Satellite Launch Center

Loading…

Volgende Passages (komende 24 uur)

TLE

VerouderdSource: Space-Track

Epoch: Sep 30, 2022, 01:20 UTC

1 36670U 99025DYQ 22273.05614775  .00003464  00000-0  13134-2 0  9999
2 36670  98.7299 350.7431 0041192 270.9258  88.7205 14.31289949716207

Volg FENGYUN 1C DEB in realtime met AllMySat

Download on the App Store